Météo par heure à Alins

Ce jour, 26 Octobre, Lundi

Heure Température Précipitation Vent Pression Humidité
00:00 +5°C° 0.1 mm 1 m/s 635 mmHg 93%
01:00 +5°C° 0.3 mm 1 m/s 635 mmHg 93%
02:00 +5°C° 0.3 mm 1 m/s 634 mmHg 94%
03:00 +4°C° 0.3 mm 1 m/s 634 mmHg 95%
04:00 +4°C° 0.2 mm 1 m/s 634 mmHg 94%
05:00 +3°C° 0.2 mm 1 m/s 634 mmHg 93%
06:00 +3°C° 0.2 mm 1 m/s 634 mmHg 93%
07:00 +4°C° 0.2 mm 1 m/s 635 mmHg 87%
08:00 +4°C° 0.2 mm 1 m/s 635 mmHg 82%
09:00 +5°C° 0.2 mm 1 m/s 635 mmHg 77%
10:00 +4°C° 0.3 mm 2 m/s 636 mmHg 74%
11:00 +5°C° 0.3 mm 2 m/s 636 mmHg 71%
12:00 +6°C° 0.3 mm 2 m/s 636 mmHg 68%
13:00 +6°C° 0.4 mm 2 m/s 636 mmHg 68%
14:00 +6°C° 0.4 mm 2 m/s 636 mmHg 67%
15:00 +5°C° 0.4 mm 2 m/s 636 mmHg 67%
16:00 +4°C° 0.3 mm 2 m/s 636 mmHg 73%
17:00 +3°C° 0.3 mm 2 m/s 636 mmHg 78%
18:00 +1°C° 0.3 mm 2 m/s 636 mmHg 84%
19:00 +1°C° 0 mm 2 m/s 636 mmHg 84%
20:00 -1°C° 0 mm 2 m/s 636 mmHg 83%
21:00 -1°C° 0 mm 2 m/s 637 mmHg 83%
22:00 -1°C° 0 mm 2 m/s 637 mmHg 81%
23:00 -1°C° 0 mm 2 m/s 637 mmHg 80%

Demain, 27 Octobre, Mardi

Heure Température Précipitation Vent Pression Humidité
00:00 +1°C° 0 mm 1 m/s 637 mmHg 78%
01:00 +1°C° 0 mm 1 m/s 637 mmHg 78%
02:00 +1°C° 0 mm 1 m/s 636 mmHg 78%
03:00 0°C° 0 mm 1 m/s 636 mmHg 79%
04:00 +1°C° 0 mm 1 m/s 636 mmHg 78%
05:00 +1°C° 0 mm 1 m/s 636 mmHg 76%
06:00 +1°C° 0 mm 1 m/s 636 mmHg 75%
07:00 +2°C° 0 mm 1 m/s 637 mmHg 71%
08:00 +4°C° 0 mm 1 m/s 637 mmHg 67%
09:00 +6°C° 0 mm 1 m/s 638 mmHg 62%
10:00 +6°C° 0 mm 1 m/s 638 mmHg 60%
11:00 +7°C° 0 mm 1 m/s 638 mmHg 58%
12:00 +7°C° 0 mm 2 m/s 638 mmHg 57%
13:00 +7°C° 0 mm 2 m/s 638 mmHg 57%
14:00 +7°C° 0 mm 2 m/s 638 mmHg 58%
15:00 +7°C° 0 mm 2 m/s 638 mmHg 58%
16:00 +7°C° 0 mm 1 m/s 638 mmHg 64%
17:00 +6°C° 0 mm 1 m/s 637 mmHg 70%
18:00 +5°C° 0 mm 1 m/s 637 mmHg 76%
19:00 +5°C° 0 mm 1 m/s 637 mmHg 78%
20:00 +5°C° 0 mm 1 m/s 637 mmHg 80%
21:00 +5°C° 0 mm 1 m/s 637 mmHg 81%
22:00 +5°C° 0 mm 1 m/s 637 mmHg 82%
23:00 +5°C° 0 mm 1 m/s 637 mmHg 82%

Après-demain, 28 Octobre, Mercredi

Heure Température Précipitation Vent Pression Humidité
00:00 +5°C° 0 mm 1 m/s 637 mmHg 82%
01:00 +5°C° 0 mm 1 m/s 637 mmHg 83%
02:00 +5°C° 0 mm 1 m/s 637 mmHg 83%
03:00 +5°C° 0 mm 1 m/s 637 mmHg 84%
04:00 +4°C° 0 mm 1 m/s 637 mmHg 85%
05:00 +4°C° 0 mm 1 m/s 637 mmHg 86%
06:00 +4°C° 0 mm 1 m/s 637 mmHg 87%
07:00 +6°C° 0 mm 1 m/s 638 mmHg 83%
08:00 +7°C° 0 mm 1 m/s 639 mmHg 80%
09:00 +9°C° 0 mm 1 m/s 640 mmHg 76%
10:00 +10°C° 0 mm 1 m/s 640 mmHg 74%
11:00 +10°C° 0 mm 1 m/s 640 mmHg 73%
12:00 +10°C° 0 mm 2 m/s 640 mmHg 71%
13:00 +10°C° 0 mm 2 m/s 640 mmHg 71%
14:00 +11°C° 0 mm 1 m/s 640 mmHg 71%
15:00 +11°C° 0 mm 1 m/s 640 mmHg 71%
16:00 +9°C° 0 mm 1 m/s 640 mmHg 76%
17:00 +8°C° 0 mm 1 m/s 640 mmHg 81%
18:00 +6°C° 0 mm 0 m/s 640 mmHg 86%
19:00 +6°C° 0 mm 0 m/s 640 mmHg 87%
20:00 +6°C° 0 mm 1 m/s 640 mmHg 87%
21:00 +6°C° 0 mm 1 m/s 641 mmHg 88%
22:00 +5°C° 0 mm 1 m/s 641 mmHg 88%
23:00 +5°C° 0 mm 1 m/s 641 mmHg 88%

29 Octobre, Jeudi

Heure Température Précipitation Vent Pression Humidité
00:00 +5°C° 0 mm 1 m/s 641 mmHg 88%
01:00 +5°C° 0 mm 1 m/s 641 mmHg 88%
02:00 +5°C° 0 mm 1 m/s 641 mmHg 89%
03:00 +5°C° 0 mm 1 m/s 641 mmHg 89%
04:00 +4°C° 0 mm 1 m/s 641 mmHg 89%
05:00 +4°C° 0 mm 1 m/s 641 mmHg 89%
06:00 +4°C° 0 mm 1 m/s 641 mmHg 88%
07:00 +6°C° 0 mm 1 m/s 642 mmHg 83%
08:00 +8°C° 0 mm 1 m/s 643 mmHg 77%
09:00 +9°C° 0 mm 1 m/s 644 mmHg 72%
10:00 +10°C° 0 mm 1 m/s 644 mmHg 68%
11:00 +12°C° 0 mm 1 m/s 644 mmHg 65%
12:00 +13°C° 0 mm 2 m/s 644 mmHg 61%
13:00 +13°C° 0 mm 2 m/s 644 mmHg 61%
14:00 +13°C° 0 mm 2 m/s 644 mmHg 61%
15:00 +12°C° 0 mm 1 m/s 644 mmHg 61%
16:00 +11°C° 0 mm 1 m/s 643 mmHg 68%
17:00 +9°C° 0 mm 1 m/s 643 mmHg 74%
18:00 +7°C° 0 mm 1 m/s 642 mmHg 81%
19:00 +6°C° 0 mm 1 m/s 642 mmHg 80%
20:00 +6°C° 0 mm 1 m/s 642 mmHg 79%
21:00 +6°C° 0 mm 1 m/s 642 mmHg 78%
22:00 +6°C° 0 mm 1 m/s 642 mmHg 75%
23:00 +6°C° 0 mm 1 m/s 642 mmHg 72%

30 Octobre, Vendredi

Heure Température Précipitation Vent Pression Humidité
00:00 +6°C° 0 mm 1 m/s 642 mmHg 69%
01:00 +6°C° 0 mm 1 m/s 642 mmHg 69%
02:00 +6°C° 0 mm 1 m/s 642 mmHg 68%
03:00 +6°C° 0 mm 1 m/s 641 mmHg 68%
04:00 +6°C° 0 mm 1 m/s 641 mmHg 69%
05:00 +6°C° 0 mm 1 m/s 641 mmHg 69%
06:00 +6°C° 0 mm 1 m/s 641 mmHg 70%
07:00 +8°C° 0 mm 1 m/s 642 mmHg 66%
08:00 +10°C° 0 mm 1 m/s 643 mmHg 62%
09:00 +12°C° 0 mm 1 m/s 643 mmHg 57%
10:00 +13°C° 0 mm 1 m/s 644 mmHg 55%
11:00 +14°C° 0 mm 2 m/s 644 mmHg 52%
12:00 +15°C° 0 mm 2 m/s 644 mmHg 50%
13:00 +15°C° 0 mm 2 m/s 644 mmHg 50%
14:00 +14°C° 0 mm 2 m/s 643 mmHg 51%
15:00 +14°C° 0 mm 2 m/s 643 mmHg 52%
16:00 +12°C° 0 mm 2 m/s 642 mmHg 59%
17:00 +10°C° 0 mm 1 m/s 641 mmHg 66%
18:00 +8°C° 0 mm 1 m/s 641 mmHg 73%
19:00 +8°C° 0 mm 1 m/s 641 mmHg 74%
20:00 +8°C° 0 mm 1 m/s 641 mmHg 76%
21:00 +8°C° 0 mm 1 m/s 641 mmHg 77%
22:00 +8°C° 0 mm 1 m/s 641 mmHg 78%
23:00 +8°C° 0 mm 1 m/s 640 mmHg 79%

31 Octobre, Samedi

Heure Température Précipitation Vent Pression Humidité
00:00 +8°C° 0 mm 1 m/s 640 mmHg 80%
01:00 +7°C° 0 mm 1 m/s 640 mmHg 82%
02:00 +7°C° 0 mm 1 m/s 640 mmHg 84%
03:00 +7°C° 0 mm 1 m/s 640 mmHg 85%
04:00 +7°C° 0 mm 1 m/s 640 mmHg 86%
05:00 +7°C° 0 mm 1 m/s 640 mmHg 86%
06:00 +7°C° 0 mm 1 m/s 640 mmHg 86%
Voir plus

Nous avons besoin de votre consentement

Meteoprog et ses fournisseurs de services peuvent stocker et accéder à des données personnelles telles que des cookies, des identifiants d'appareils ou d'autres technologies similaires sur votre appareil et traiter ces données pour personnaliser le contenu et les publicités, ainsi que pour fournir des fonctionnalités de médias sociaux et analyser le trafic.

  • Stocker et/ou accéder à des informations sur votre appareil

    Des cookies, des identifiants d'appareils ou d'autres informations peuvent être stockés ou accessibles sur votre appareil aux fins indiquées ci-dessus.

  • Annonces et contenus personnalisés, mesure des annonces et des contenus, connaissance de l'audience et développement de produits

    Les annonces et le contenu peuvent être personnalisés en fonction d'un profil. D'autres données peuvent être ajoutées pour mieux personnaliser les annonces et le contenu. Les performances des publicités et du contenu peuvent être mesurées. Il est possible d'obtenir des informations sur le public qui a vu les publicités et le contenu. Ces données peuvent être utilisées pour développer ou améliorer l'expérience de l'utilisateur, les systèmes et les logiciels.

En cliquant sur "J'accepte", vous autorisez l'utilisation de cookies, des identifiants d'appareils, des balises web ou d'autres technologies similaires. Vos paramètres peuvent être modifiés dans le navigateur de votre appareil.

Dans certains cas, des intérêts légitimes peuvent être invoqués plutôt qu'un consentement. Vous pouvez en savoir plus à ce sujet dans notre Politique de confidentialité et de cookies.